Weather History for Franklin, NC

Change the Weather History Date:

Wednesday, April 10, 2013

  Actual Average (KTOC) Record (KTOC)
Temperature  
Mean Temperature 62 °F -  
Max Temperature 82 °F 71 °F 76 °F (2014)
Min Temperature 41 °F 43 °F 41 °F (2014)
Degree Days  
Heating Degree Days 4    
Growing Degree Days 12 (Base 50)    
Moisture  
Dew Point 47 °F    
Average Humidity 63    
Maximum Humidity 97    
Minimum Humidity 27    
Precipitation  
Precipitation 0.00 in - - ()
Sea Level Pressure  
Sea Level Pressure 30.09 in    
Wind  
Wind Speed 2 mph (SE)    
Max Wind Speed 10 mph    
Max Gust Speed 16 mph    
Visibility 9 miles    
Events      
Averages and records for this station are not official NWS values.
T = Trace of Precipitation, MM = Missing Value Source: NWS Daily Summary

Daily Weather History Graph

Daily Weather History Graph

Search for Another Location

Airport:

Trip Planner

Search our weather history database for the weather conditions in past years. The results will help you decide how hot, cold, wet, or windy it might be!

Date:

Astronomy

Apr. 10, 2013 Rise Set
Actual Time 7:07 AM EDT 8:02 PM EDT
Civil Twilight 6:41 AM EDT 8:28 PM EDT
Nautical Twilight 6:11 AM EDT 8:59 PM EDT
Astronomical Twilight 5:39 AM EDT 9:30 PM EDT
Moon 7:04 AM EDT (4/10) 8:35 PM EDT (4/10)
Length of Visible Light 13h 46m
Length of Day
12h 54m
New Moon, 0% of the Moon is Illuminated
Apr 10
New Moon
Apr 18
First Quarter
Apr 25
Full
May 2
Last Quarter
May 9
New

Hourly Weather History & Observations

Time (EDT) Temp. Windchill Dew Point Humidity Pressure Visibility Wind Dir Wind Speed Gust Speed Precip Events Conditions
12:15 AM 51.8 °F - 47.3 °F 85% 30.18 in 10.0 mi Calm Calm - N/A   Clear
12:35 AM 51.1 °F - 47.5 °F 87% 30.18 in 10.0 mi Calm Calm - N/A   Clear
12:55 AM 49.5 °F - 46.0 °F 88% 30.18 in 10.0 mi Calm Calm - N/A   Clear
1:15 AM 49.5 °F - 45.9 °F 87% 30.18 in 10.0 mi Calm Calm - N/A   Clear
1:35 AM 48.6 °F - 45.1 °F 88% 30.18 in 10.0 mi Calm Calm - N/A   Clear
1:55 AM 49.3 °F - 46.9 °F 92% 30.18 in 10.0 mi Calm Calm - N/A   Clear
2:15 AM 47.5 °F - 44.4 °F 89% 30.17 in 10.0 mi Calm Calm - N/A   Clear
2:35 AM 47.1 °F - 45.1 °F 93% 30.17 in 7.0 mi Calm Calm - N/A   Clear
2:55 AM 46.4 °F - 44.2 °F 92% 30.15 in 7.0 mi Calm Calm - N/A   Clear
3:15 AM 46.2 °F - 44.2 °F 93% 30.14 in 10.0 mi Calm Calm - N/A   Clear
3:35 AM 45.7 °F - 43.7 °F 93% 30.14 in 7.0 mi Calm Calm - N/A   Clear
3:55 AM 45.3 °F - 43.7 °F 94% 30.14 in 7.0 mi Calm Calm - N/A   Clear
4:15 AM 43.9 °F - 42.3 °F 94% 30.14 in 7.0 mi Calm Calm - N/A   Clear
4:35 AM 44.6 °F 43.1 °F 43.0 °F 94% 30.14 in 7.0 mi East 3.5 mph - N/A   Clear
4:55 AM 45.5 °F - 44.4 °F 96% 30.14 in 7.0 mi Calm Calm - N/A   Clear
5:15 AM 45.1 °F - 44.1 °F 96% 30.14 in 7.0 mi Calm Calm - N/A   Clear
5:35 AM 43.9 °F - 42.8 °F 96% 30.14 in 7.0 mi Calm Calm - N/A   Clear
5:55 AM 43.7 °F - 42.8 °F 97% 30.14 in 7.0 mi Calm Calm - N/A   Clear
6:15 AM 44.2 °F - 43.3 °F 97% 30.14 in 4.0 mi Calm Calm - N/A   Clear
6:35 AM 43.0 °F - 42.1 °F 97% 30.13 in 5.0 mi Calm Calm - N/A   Clear
6:55 AM 42.1 °F - 41.2 °F 97% 30.14 in 7.0 mi Calm Calm - N/A   Clear
7:15 AM 41.9 °F - 40.8 °F 96% 30.14 in 7.0 mi Calm Calm - N/A   Clear
7:35 AM 42.3 °F - 41.2 °F 96% 30.15 in 4.0 mi Calm Calm - N/A   Clear
7:55 AM 43.9 °F - 43.2 °F 97% 30.16 in 7.0 mi Calm Calm - N/A   Clear
8:15 AM 45.9 °F - 45.0 °F 97% 30.16 in 7.0 mi Calm Calm - N/A   Clear
8:35 AM 48.9 °F - 48.0 °F 97% 30.16 in 7.0 mi Calm Calm - N/A   Clear
8:55 AM 52.2 °F - 48.9 °F 89% 30.17 in 10.0 mi ENE 3.5 mph - N/A   Clear
9:15 AM 55.4 °F - 50.0 °F 82% 30.17 in 10.0 mi Calm Calm - N/A   Clear
9:35 AM 57.7 °F - 50.4 °F 76% 30.17 in 10.0 mi Calm Calm - N/A   Clear
9:55 AM 60.6 °F - 51.4 °F 72% 30.16 in 10.0 mi Calm Calm - N/A   Clear
10:15 AM 63.3 °F - 50.9 °F 64% 30.16 in 10.0 mi Calm Calm - N/A   Clear
10:35 AM 65.8 °F - 51.6 °F 60% 30.16 in 10.0 mi Calm Calm - N/A   Clear
10:55 AM 68.5 °F - 52.3 °F 56% 30.16 in 10.0 mi Calm Calm - N/A   Clear
11:15 AM 70.7 °F - 53.8 °F 55% 30.16 in 10.0 mi Calm Calm - N/A   Clear
11:35 AM 73.4 °F - 51.1 °F 45% 30.15 in 10.0 mi ESE 3.5 mph - N/A   Clear
11:55 AM 74.1 °F - 52.7 °F 47% 30.15 in 10.0 mi ENE 5.8 mph - N/A   Clear
12:15 PM 75.4 °F - 52.9 °F 45% 30.14 in 10.0 mi ENE 4.6 mph - N/A   Clear
12:35 PM 76.3 °F - 52.2 °F 43% 30.13 in 10.0 mi NNE 5.8 mph - N/A   Clear
1:15 PM 78.6 °F - 49.6 °F 36% 30.11 in 10.0 mi Calm Calm - N/A   Clear
1:35 PM 79.0 °F - 50.0 °F 36% 30.10 in 10.0 mi East 4.6 mph - N/A   Clear
1:55 PM 80.1 °F - 50.0 °F 35% 30.09 in 10.0 mi ESE 4.6 mph - N/A   Clear
2:15 PM 80.6 °F - 49.5 °F 34% 30.08 in 10.0 mi SE 3.5 mph - N/A   Clear
2:35 PM 81.7 °F - 49.1 °F 32% 30.08 in 10.0 mi Calm Calm - N/A   Clear
2:55 PM 81.9 °F - 48.2 °F 31% 30.07 in 10.0 mi ESE 8.1 mph - N/A   Clear
3:15 PM 82.4 °F - 47.5 °F 29% 30.06 in 10.0 mi East 8.1 mph - N/A   Clear
3:35 PM 82.8 °F - 46.9 °F 28% 30.05 in 10.0 mi SSE 8.1 mph - N/A   Clear
3:55 PM 82.8 °F - 46.0 °F 28% 30.04 in 10.0 mi SSE 8.1 mph - N/A   Clear
4:15 PM 82.6 °F - 45.7 °F 27% 30.03 in 10.0 mi SSE 4.6 mph 16.1 mph N/A   Clear
4:35 PM 82.6 °F - 45.0 °F 27% 30.02 in 10.0 mi SE 5.8 mph - N/A   Clear
4:55 PM 82.0 °F - 46.8 °F 29% 30.01 in 10.0 mi South 5.8 mph - N/A   Clear
5:15 PM 81.9 °F - 45.9 °F 28% 30.01 in 10.0 mi South 5.8 mph 16.1 mph N/A   Clear
5:35 PM 81.3 °F - 46.0 °F 29% 30.01 in 10.0 mi South 6.9 mph - N/A   Clear
5:55 PM 80.6 °F - 45.3 °F 29% 30.01 in 10.0 mi South 9.2 mph - N/A   Clear
6:15 PM 79.7 °F - 44.4 °F 29% 30.01 in 10.0 mi SSE 9.2 mph 16.1 mph N/A   Scattered Clouds
6:35 PM 78.8 °F - 45.7 °F 31% 30.01 in 10.0 mi South 10.4 mph 16.1 mph N/A   Mostly Cloudy
6:55 PM 78.3 °F - 46.8 °F 33% 30.01 in 10.0 mi South 5.8 mph 16.1 mph N/A   Mostly Cloudy
7:15 PM 77.4 °F - 47.5 °F 35% 30.01 in 10.0 mi South 8.1 mph - N/A   Scattered Clouds
7:35 PM 76.6 °F - 47.8 °F 36% 30.01 in 10.0 mi SSE 6.9 mph 16.1 mph N/A   Clear
7:55 PM 75.4 °F - 48.2 °F 38% 30.01 in 10.0 mi South 6.9 mph - N/A   Clear
8:15 PM 74.3 °F - 47.8 °F 39% 30.00 in 10.0 mi SSE 3.5 mph - N/A   Clear
8:35 PM 73.4 °F - 48.6 °F 41% 30.00 in 10.0 mi South 3.5 mph - N/A   Clear
8:55 PM 72.3 °F - 48.7 °F 43% 30.00 in 10.0 mi SSE 3.5 mph - N/A   Clear
9:15 PM 71.6 °F - 49.6 °F 46% 30.01 in 10.0 mi South 3.5 mph - N/A   Clear
9:35 PM 70.7 °F - 50.2 °F 48% 30.01 in 10.0 mi Calm Calm - N/A   Clear
9:55 PM 70.5 °F - 50.7 °F 49% 30.00 in 10.0 mi SE 4.6 mph - N/A   Clear
10:15 PM 68.9 °F - 51.1 °F 53% 30.00 in 10.0 mi Calm Calm - N/A   Clear
10:35 PM 63.3 °F - 51.1 °F 64% 29.99 in 10.0 mi Calm Calm - N/A   Clear
10:55 PM 60.4 °F - 51.1 °F 71% 29.99 in 10.0 mi Calm Calm - N/A   Clear
11:15 PM 59.4 °F - 51.1 °F 74% 30.00 in 10.0 mi Calm Calm - N/A   Clear
11:35 PM 58.3 °F - 50.9 °F 76% 30.00 in 10.0 mi Calm Calm - N/A   Clear
11:55 PM 57.9 °F - 50.9 °F 77% 30.00 in 10.0 mi ENE 4.6 mph - N/A   Clear